This demonstration page uses our WeatherBlox Daily Observations layout. Learn more.

Left ArrowRight Arrow

Hourly Observations for November 13, 2022

Temp ( °F °C ) Dew Point ( °F °C ) Humidity (%) Winds ( mph kmh ) Pressure ( in mb ) Visibility ( mi km ) Precip ( " mm )
12:56 am 00:56 Clear 15 -9.4 10 -12.2 80 80 SSE 6 9 30.31 1026 10 16 0.00 0.00
1:56 am 01:56 Clear 15 -9.4 11 -11.7 83 83 S 7 11 30.29 1026 10 16 0.00 0.00
2:56 am 02:56 Clear 15 -9.4 11 -11.7 83 83 SSE 7 11 30.28 1026 10 16 0.00 0.00
3:56 am 03:56 Clear 14 -10 10 -12.2 84 84 SE 6 9 30.28 1025 10 16 0.00 0.00
4:56 am 04:56 Clear 14 -10 11 -11.7 87 87 SE 8 13 30.26 1025 10 16 0.00 0.00
5:56 am 05:56 Clear 16 -8.9 12 -11.1 84 84 SE 10 17 30.24 1024 10 16 0.00 0.00
6:56 am 06:56 Clear 16 -8.9 12 -11.1 84 84 SE 9 15 30.22 1023 10 16 0.00 0.00
7:56 am 07:56 Sunny 17 -8.3 13 -10.6 83 83 SE 8 13 30.23 1024 10 16 0.00 0.00
8:56 am 08:56 Sunny 23 -5 17 -8.3 78 78 SSE 16 26 30.21 1023 10 16 0.00 0.00
9:56 am 09:56 Sunny 29 -1.7 19 -7.2 66 66 SSE 21 33 30.18 1022 10 16 0.00 0.00
10:56 am 10:56 Sunny 33 0.6 18 -7.8 53 53 SSE 23 37 30.14 1021 10 16 0.00 0.00
11:56 am 11:56 Sunny 36 2.2 19 -7.2 50 50 SSE 21 33 30.10 1019 10 16 0.00 0.00
12:56 pm 12:56 Sunny 39 3.9 20 -6.7 46 46 SSE 24 39 30.04 1017 10 16 0.00 0.00
1:56 pm 13:56 Sunny 40 4.4 21 -6.1 46 46 SSE 21 33 30.02 1017 10 16 0.00 0.00
2:56 pm 14:56 Sunny 43 6.1 22 -5.6 43 43 SSE 18 30 30.02 1017 10 16 0.00 0.00
3:56 pm 15:56 Sunny 42 5.6 22 -5.6 44 44 SE 15 24 30.01 1016 10 16 0.00 0.00
4:56 pm 16:56 Sunny 39 3.9 22 -5.6 50 50 ESE 12 19 30.01 1016 10 16 0.00 0.00
5:56 pm 17:56 Clear 30 -1.1 21 -6.1 69 69 E 9 15 30.04 1017 10 16 0.00 0.00
6:56 pm 18:56 Clear 30 -1.1 22 -5.6 71 71 E 8 13 30.06 1018 10 16 0.00 0.00
7:56 pm 19:56 Clear 28 -2.2 21 -6.1 75 75 NE 9 15 30.07 1018 10 16 0.00 0.00
8:56 pm 20:56 Clear 30 -1.1 23 -5 75 75 NE 10 17 30.07 1018 10 16 0.00 0.00
9:56 pm 21:56 Clear 30 -1.1 23 -5 75 75 NNE 9 15 30.08 1019 10 16 0.00 0.00
10:56 pm 22:56 Clear 29 -1.7 22 -5.6 75 75 N 13 20 30.10 1019 10 16 0.00 0.00
11:56 pm 23:56 Clear 24 -4.4 16 -8.9 71 71 NNW 17 28 30.13 1020 10 16 0.00 0.00

Powered by AerisWeather